,,,PA_Meas_PMT16A,,PR_Meas_QMR101_102,,RH_Meas_QMH101,,SR_Meas_QMS101,,TA_Meas_QMH101,,GenWind,,GenWind,
date,time,status,PA,status,PR,status,RH,status,SR,status,TA,status,DirAvg,status,SpdAvg,
2009-05-30, 00:00:04,VALID,1001.27,VALID,0,VALID,90.1592,VALID,0,VALID,24.519,VALID,53,VALID,0.444141,
2009-05-30, 00:01:04,VALID,1001.25,VALID,0,VALID,90.205,VALID,0,VALID,24.4995,VALID,53,VALID,0.490625,
2009-05-30, 00:02:04,VALID,1001.24,VALID,0,VALID,90.1363,VALID,0,VALID,24.5013,VALID,54,VALID,0.642187,
2009-05-30, 00:03:04,VALID,1001.23,VALID,0,VALID,89.8388,VALID,0,VALID,24.4818,VALID,54,VALID,0.673437,
2009-05-30, 00:04:04,VALID,1001.22,VALID,0,VALID,90.0753,VALID,0,VALID,24.5209,VALID,58,VALID,0.75625,
2009-05-30, 00:05:04,VALID,1001.23,VALID,0,VALID,90.1974,VALID,0,VALID,24.5209,VALID,62,VALID,0.619531,
2009-05-30, 00:06:04,VALID,1001.24,VALID,0,VALID,90.2355,VALID,0,VALID,24.5404,VALID,62,VALID,0.501172,
2009-05-30, 00:07:04,VALID,1001.24,VALID,0,VALID,90.3881,VALID,0,VALID,24.5599,VALID,75,VALID,0.550391,
2009-05-30, 00:08:04,VALID,1001.25,VALID,0,VALID,90.2203,VALID,0,VALID,24.5599,VALID,87,VALID,0.635938,
2009-05-30, 00:09:04,VALID,1001.22,VALID,0,VALID,90.0295,VALID,0,VALID,24.558,VALID,87,VALID,0.625,
2009-05-30, 00:10:04,VALID,1001.21,VALID,0,VALID,90.0982,VALID,0,VALID,24.5794,VALID,87,VALID,0.405469,
2009-05-30, 00:11:04,VALID,1001.17,VALID,0,VALID,89.9074,VALID,0,VALID,24.558,VALID,87,VALID,0.578516,
2009-05-30, 00:12:04,VALID,1001.16,VALID,0,VALID,89.9227,VALID,0,VALID,24.5989,VALID,92,VALID,0.694922,
2009-05-30, 00:13:04,VALID,1001.14,VALID,0,VALID,89.9074,VALID,0,VALID,24.5971,VALID,95,VALID,0.424219,
2009-05-30, 00:14:04,VALID,1001.09,VALID,0,VALID,90.0295,VALID,0,VALID,24.5989,VALID,95,VALID,0.612109,
2009-05-30, 00:15:04,VALID,1001.1,VALID,0,VALID,90.0982,VALID,0,VALID,24.6184,VALID,95,VALID,0.356641,
2009-05-30, 00:16:04,VALID,1001.08,VALID,0,VALID,90.1974,VALID,0,VALID,24.6184,VALID,95,VALID,0.367969,
2009-05-30, 00:17:04,VALID,1001.04,VALID,0,VALID,90.3042,VALID,0,VALID,24.5794,VALID,95,VALID,0.188281,
2009-05-30, 00:18:04,VALID,1001.07,VALID,0,VALID,90.3881,VALID,0,VALID,24.5599,VALID,95,VALID,0.153906,
2009-05-30, 00:19:04,VALID,1001.02,VALID,0,VALID,90.5483,VALID,0,VALID,24.5385,VALID,95,VALID,0.114063,
2009-05-30, 00:20:04,VALID,1000.99,VALID,0,VALID,90.6933,VALID,0,VALID,24.5404,VALID,95,VALID,0.00195313,
2009-05-30, 00:21:04,VALID,1000.99,VALID,0,VALID,90.9527,VALID,0,VALID,24.5404,VALID,95,VALID,0.227344,
2009-05-30, 00:22:04,VALID,1000.97,VALID,0,VALID,91.0748,VALID,0,VALID,24.5209,VALID,95,VALID,0.269531,
2009-05-30, 00:23:04,VALID,1000.91,VALID,0,VALID,91.2884,VALID,0,VALID,24.5209,VALID,95,VALID,0.292188,
2009-05-30, 00:24:04,VALID,1000.9,VALID,0,VALID,91.3952,VALID,0.112286,VALID,24.5013,VALID,95,VALID,0.399219,
2009-05-30, 00:25:04,VALID,1000.87,VALID,0,VALID,91.4944,VALID,0,VALID,24.4995,VALID,95,VALID,0.575781,
2009-05-30, 00:26:04,VALID,1000.85,VALID,0,VALID,91.5173,VALID,0,VALID,24.5013,VALID,96,VALID,0.591016,
2009-05-30, 00:27:04,VALID,1000.79,VALID,0,VALID,91.4715,VALID,0,VALID,24.4995,VALID,96,VALID,0.610937,
2009-05-30, 00:28:04,VALID,1000.77,VALID,0,VALID,91.3952,VALID,0.112286,VALID,24.5209,VALID,96,VALID,0.525781,
2009-05-30, 00:29:04,VALID,1000.77,VALID,0,VALID,91.4028,VALID,0,VALID,24.5404,VALID,101,VALID,0.628125,
2009-05-30, 00:30:04,VALID,1000.73,VALID,0,VALID,91.3571,VALID,0,VALID,24.5794,VALID,116,VALID,0.608203,
2009-05-30, 00:31:04,VALID,1000.69,VALID,0,VALID,91.3418,VALID,0,VALID,24.5989,VALID,119,VALID,0.566016,
2009-05-30, 00:32:04,VALID,1000.66,VALID,0,VALID,91.1663,VALID,0,VALID,24.6184,VALID,133,VALID,0.862109,
2009-05-30, 00:33:04,VALID,1000.66,VALID,0,VALID,90.9451,VALID,0,VALID,24.6575,VALID,135,VALID,0.696875,
2009-05-30, 00:34:04,VALID,1000.65,VALID,0,VALID,90.8077,VALID,0,VALID,24.6965,VALID,138,VALID,0.692969,
2009-05-30, 00:35:04,VALID,1000.64,VALID,0,VALID,90.5407,VALID,0,VALID,24.6946,VALID,150,VALID,0.810938,
2009-05-30, 00:36:04,VALID,1000.59,VALID,0,VALID,90.35,VALID,0,VALID,24.7551,VALID,137,VALID,0.710156,
2009-05-30, 00:37:04,VALID,1000.61,VALID,0,VALID,90.0906,VALID,0,VALID,24.7551,VALID,148,VALID,0.785937,
2009-05-30, 00:38:04,VALID,1000.56,VALID,0,VALID,89.9303,VALID,0,VALID,24.7727,VALID,149,VALID,0.911328,
2009-05-30, 00:39:04,VALID,1000.57,VALID,0,VALID,89.938,VALID,0,VALID,24.7746,VALID,164,VALID,1.04297,
2009-05-30, 00:40:04,VALID,1000.56,VALID,0,VALID,89.9685,VALID,0,VALID,24.8155,VALID,167,VALID,1.27852,
2009-05-30, 00:41:04,VALID,1000.56,VALID,0,VALID,90.0219,VALID,0,VALID,24.8136,VALID,169,VALID,1.28437,
2009-05-30, 00:42:04,VALID,1000.52,VALID,0,VALID,89.9303,VALID,0,VALID,24.8136,VALID,170,VALID,1.37617,
2009-05-30, 00:43:04,VALID,1000.48,VALID,0,VALID,89.3276,VALID,0,VALID,24.8546,VALID,183,VALID,2.08711,
2009-05-30, 00:44:04,VALID,1000.47,VALID,0,VALID,89.3886,VALID,0,VALID,24.8936,VALID,179,VALID,1.79258,
2009-05-30, 00:45:04,VALID,1000.42,VALID,0,VALID,89.1292,VALID,0,VALID,24.9131,VALID,190,VALID,1.79414,
2009-05-30, 00:46:04,VALID,1000.42,VALID,0,VALID,88.8317,VALID,0,VALID,24.9131,VALID,190,VALID,1.31602,
2009-05-30, 00:47:04,VALID,1000.41,VALID,0,VALID,88.6257,VALID,0,VALID,24.8722,VALID,180,VALID,1.44102,
2009-05-30, 00:48:04,VALID,1000.37,VALID,0,VALID,88.6257,VALID,0,VALID,24.8722,VALID,179,VALID,1.23711,
2009-05-30, 00:49:04,VALID,1000.39,VALID,0,VALID,88.5341,VALID,0,VALID,24.8936,VALID,179,VALID,1.5543,
2009-05-30, 00:50:04,VALID,1000.38,VALID,0,VALID,88.4578,VALID,0,VALID,24.8936,VALID,173,VALID,1.80781,
2009-05-30, 00:51:04,VALID,1000.35,VALID,0,VALID,88.412,VALID,0,VALID,24.8936,VALID,172,VALID,1.42656,
2009-05-30, 00:52:04,VALID,1000.37,VALID,0,VALID,88.4578,VALID,0,VALID,24.8741,VALID,165,VALID,1.01328,
2009-05-30, 00:53:04,VALID,1000.38,VALID,0,VALID,88.496,VALID,0,VALID,24.8527,VALID,163,VALID,1.10625,
2009-05-30, 00:54:04,VALID,1000.37,VALID,0,VALID,88.6562,VALID,0.112286,VALID,24.8313,VALID,146,VALID,0.711328,
2009-05-30, 00:55:04,VALID,1000.36,VALID,0,VALID,88.7401,VALID,0,VALID,24.7922,VALID,140,VALID,0.847656,
2009-05-30, 00:56:04,VALID,1000.39,VALID,0,VALID,88.9919,VALID,0.112286,VALID,24.7727,VALID,118,VALID,0.699609,
2009-05-30, 00:57:04,VALID,1000.38,VALID,0,VALID,89.2132,VALID,0,VALID,24.7142,VALID,110,VALID,0.722266,
2009-05-30, 00:58:04,VALID,1000.39,VALID,0,VALID,89.587,VALID,0,VALID,24.716,VALID,104,VALID,0.569141,
2009-05-30, 00:59:04,VALID,1000.33,VALID,0,VALID,89.7701,VALID,0,VALID,24.6575,VALID,104,VALID,0.358594,
2009-05-30, 01:00:04,VALID,1000.32,VALID,0,VALID,90.1058,VALID,0,VALID,24.638,VALID,104,VALID,0.424219,
2009-05-30, 01:01:04,VALID,1000.32,VALID,0,VALID,90.4568,VALID,0,VALID,24.5775,VALID,104,VALID,0.440234,
2009-05-30, 01:02:04,VALID,1000.28,VALID,0,VALID,90.5636,VALID,0,VALID,24.558,VALID,102,VALID,0.577344,
2009-05-30, 01:03:04,VALID,1000.28,VALID,0,VALID,90.5865,VALID,0,VALID,24.5404,VALID,85,VALID,0.797656,
2009-05-30, 01:04:04,VALID,1000.24,VALID,0,VALID,90.5636,VALID,0,VALID,24.519,VALID,81,VALID,0.581641,
2009-05-30, 01:05:04,VALID,1000.23,VALID,0,VALID,90.3271,VALID,0,VALID,24.5013,VALID,62,VALID,0.842188,
2009-05-30, 01:06:04,VALID,1000.27,VALID,0,VALID,90.4339,VALID,0,VALID,24.5013,VALID,65,VALID,0.754687,
2009-05-30, 01:07:04,VALID,1000.25,VALID,0,VALID,90.5026,VALID,0,VALID,24.4818,VALID,79,VALID,0.614453,
2009-05-30, 01:08:04,VALID,1000.22,VALID,0,VALID,90.5407,VALID,0,VALID,24.4818,VALID,80,VALID,0.182422,
2009-05-30, 01:09:04,VALID,1000.22,VALID,0,VALID,90.6475,VALID,0,VALID,24.4428,VALID,80,VALID,0.236719,
2009-05-30, 01:10:04,VALID,1000.2,VALID,0,VALID,90.7009,VALID,0,VALID,24.4446,VALID,80,VALID,0.169141,
2009-05-30, 01:11:04,VALID,1000.17,VALID,0,VALID,90.7238,VALID,0,VALID,24.4233,VALID,80,VALID,0.251953,
2009-05-30, 01:12:04,VALID,1000.18,VALID,0,VALID,90.7849,VALID,0,VALID,24.3842,VALID,66,VALID,0.475,
2009-05-30, 01:13:04,VALID,1000.13,VALID,0,VALID,90.8917,VALID,0,VALID,24.3842,VALID,19,VALID,0.801562,
2009-05-30, 01:14:04,VALID,1000.14,VALID,0,VALID,90.7162,VALID,0,VALID,24.4056,VALID,39,VALID,0.841016,
2009-05-30, 01:15:04,VALID,1000.1,VALID,0,VALID,91.0443,VALID,0,VALID,24.4056,VALID,39,VALID,0.494141,
2009-05-30, 01:16:04,VALID,1000.1,VALID,0,VALID,91.1968,VALID,0,VALID,24.3861,VALID,35,VALID,0.547656,
2009-05-30, 01:17:04,VALID,1000.1,VALID,0,VALID,91.3266,VALID,0,VALID,24.3666,VALID,35,VALID,0.370703,
2009-05-30, 01:18:04,VALID,1000.06,VALID,0,VALID,91.3113,VALID,0,VALID,24.347,VALID,35,VALID,0.283984,
2009-05-30, 01:19:04,VALID,1000.05,VALID,0,VALID,91.3418,VALID,0,VALID,24.3062,VALID,35,VALID,0.370313,
2009-05-30, 01:20:04,VALID,1000.03,VALID,0,VALID,91.5249,VALID,0,VALID,24.2866,VALID,35,VALID,0.428125,
2009-05-30, 01:21:04,VALID,1000.01,VALID,0,VALID,91.4105,VALID,0,VALID,24.2866,VALID,35,VALID,0.274219,
2009-05-30, 01:22:04,VALID,999.985,VALID,0,VALID,91.2655,VALID,0,VALID,24.2458,VALID,35,VALID,0.189063,
2009-05-30, 01:23:04,VALID,999.969,VALID,0,VALID,91.1206,VALID,0,VALID,24.2476,VALID,35,VALID,0.400391,
2009-05-30, 01:24:04,VALID,999.984,VALID,0,VALID,91.0214,VALID,0,VALID,24.2476,VALID,35,VALID,0.0679687,
2009-05-30, 01:25:04,VALID,999.947,VALID,0,VALID,90.884,VALID,0,VALID,24.2671,VALID,35,VALID,0.294922,
2009-05-30, 01:26:04,VALID,999.903,VALID,0,VALID,90.7085,VALID,0,VALID,24.2671,VALID,129,VALID,0.581641,
2009-05-30, 01:27:04,VALID,999.91,VALID,0,VALID,90.3347,VALID,0,VALID,24.3257,VALID,129,VALID,0.645703,
2009-05-30, 01:28:04,VALID,999.902,VALID,0,VALID,89.9074,VALID,0,VALID,24.3842,VALID,141,VALID,0.912109,
2009-05-30, 01:29:04,VALID,999.851,VALID,0,VALID,89.4115,VALID,0,VALID,24.4428,VALID,120,VALID,0.766016,
2009-05-30, 01:30:04,VALID,999.817,VALID,0,VALID,88.9843,VALID,0,VALID,24.5227,VALID,81,VALID,0.945703,
2009-05-30, 01:31:04,VALID,999.8,VALID,0,VALID,88.8622,VALID,0,VALID,24.5404,VALID,59,VALID,0.932031,
2009-05-30, 01:32:04,VALID,999.788,VALID,0,VALID,88.9614,VALID,0,VALID,24.5599,VALID,60,VALID,0.588672,
2009-05-30, 01:33:04,VALID,999.794,VALID,0,VALID,89.0453,VALID,0,VALID,24.5618,VALID,60,VALID,0.379687,
2009-05-30, 01:34:04,VALID,999.775,VALID,0,VALID,88.9461,VALID,0,VALID,24.5209,VALID,117,VALID,0.709375,
2009-05-30, 01:35:04,VALID,999.752,VALID,0,VALID,88.7249,VALID,0,VALID,24.5404,VALID,135,VALID,0.803516,
2009-05-30, 01:36:04,VALID,999.725,VALID,0,VALID,88.6104,VALID,0,VALID,24.5813,VALID,131,VALID,0.568359,
2009-05-30, 01:37:04,VALID,999.756,VALID,0,VALID,88.0382,VALID,0,VALID,24.5794,VALID,114,VALID,0.920703,
2009-05-30, 01:38:04,VALID,999.704,VALID,0,VALID,88.0687,VALID,0,VALID,24.6184,VALID,118,VALID,0.547266,
2009-05-30, 01:39:04,VALID,999.726,VALID,0,VALID,87.5651,VALID,0,VALID,24.6575,VALID,131,VALID,0.939453,
2009-05-30, 01:40:04,VALID,999.697,VALID,0,VALID,87.4049,VALID,0,VALID,24.6946,VALID,144,VALID,1.09727,
2009-05-30, 01:41:04,VALID,999.696,VALID,0,VALID,87.0997,VALID,0,VALID,24.7337,VALID,156,VALID,1.27539,
2009-05-30, 01:42:04,VALID,999.639,VALID,0,VALID,86.8709,VALID,0,VALID,24.7727,VALID,151,VALID,1.04922,
2009-05-30, 01:43:04,VALID,999.643,VALID,0,VALID,86.5962,VALID,0.112286,VALID,24.7922,VALID,134,VALID,1.35156,
2009-05-30, 01:44:04,VALID,999.62,VALID,0,VALID,86.5275,VALID,0,VALID,24.8722,VALID,129,VALID,1.03789,
2009-05-30, 01:45:04,VALID,999.604,VALID,0,VALID,86.23,VALID,0,VALID,24.8508,VALID,131,VALID,1.43164,
2009-05-30, 01:46:04,VALID,999.588,VALID,0,VALID,86.1613,VALID,0,VALID,24.8703,VALID,123,VALID,1.53867,
2009-05-30, 01:47:04,VALID,999.553,VALID,0,VALID,86.0163,VALID,0.112286,VALID,24.9093,VALID,122,VALID,1.23516,
2009-05-30, 01:48:04,VALID,999.548,VALID,0,VALID,86.1155,VALID,0,VALID,24.9289,VALID,127,VALID,0.977734,
2009-05-30, 01:49:04,VALID,999.526,VALID,0,VALID,85.8027,VALID,0,VALID,24.9289,VALID,139,VALID,1.58398,
2009-05-30, 01:50:04,VALID,999.503,VALID,0,VALID,85.879,VALID,0,VALID,24.9503,VALID,141,VALID,1.23633,
2009-05-30, 01:51:04,VALID,999.47,VALID,0,VALID,85.7722,VALID,0,VALID,24.9503,VALID,141,VALID,1.37031,
2009-05-30, 01:52:04,VALID,999.434,VALID,0,VALID,85.8943,VALID,0,VALID,24.9679,VALID,151,VALID,1.08281,
2009-05-30, 01:53:04,VALID,999.438,VALID,0,VALID,85.9248,VALID,0.112286,VALID,24.9484,VALID,140,VALID,1.13359,
2009-05-30, 01:54:04,VALID,999.398,VALID,0,VALID,86.0163,VALID,0,VALID,24.9698,VALID,137,VALID,0.975781,
2009-05-30, 01:55:04,VALID,999.425,VALID,0,VALID,85.8103,VALID,0,VALID,24.9289,VALID,144,VALID,1.33477,
2009-05-30, 01:56:04,VALID,999.439,VALID,0,VALID,85.9706,VALID,0,VALID,24.9503,VALID,132,VALID,0.937109,
2009-05-30, 01:57:04,VALID,999.399,VALID,0,VALID,85.9706,VALID,0,VALID,24.9289,VALID,132,VALID,0.79375,
2009-05-30, 01:58:04,VALID,999.422,VALID,0,VALID,86.0697,VALID,0,VALID,24.9289,VALID,122,VALID,0.519922,
2009-05-30, 01:59:04,VALID,999.451,VALID,0,VALID,85.8409,VALID,0,VALID,24.9112,VALID,141,VALID,1.12461,
2009-05-30, 02:00:04,VALID,999.475,VALID,0,VALID,85.7493,VALID,0,VALID,24.9308,VALID,144,VALID,0.963281,
2009-05-30, 02:01:04,VALID,999.481,VALID,0,VALID,85.5815,VALID,0,VALID,24.9289,VALID,128,VALID,1.01797,
2009-05-30, 02:02:04,VALID,999.455,VALID,0,VALID,85.818,VALID,0,VALID,24.9484,VALID,125,VALID,0.580859,
2009-05-30, 02:03:04,VALID,999.501,VALID,0,VALID,85.879,VALID,0,VALID,24.9698,VALID,124,VALID,0.360547,
2009-05-30, 02:04:04,VALID,999.503,VALID,0,VALID,85.9019,VALID,0,VALID,24.9093,VALID,97,VALID,0.336719,
2009-05-30, 02:05:04,VALID,999.488,VALID,0,VALID,86.1918,VALID,0,VALID,24.8703,VALID,93,VALID,0.492578,
2009-05-30, 02:06:04,VALID,999.511,VALID,0,VALID,86.4207,VALID,0.112286,VALID,24.8508,VALID,93,VALID,0.465625,
2009-05-30, 02:07:04,VALID,999.502,VALID,0,VALID,86.5046,VALID,0,VALID,24.8527,VALID,95,VALID,0.524609,
2009-05-30, 02:08:04,VALID,999.519,VALID,0,VALID,86.7335,VALID,0,VALID,24.7922,VALID,98,VALID,0.415234,
2009-05-30, 02:09:04,VALID,999.532,VALID,0,VALID,86.642,VALID,0,VALID,24.7746,VALID,98,VALID,0.376953,
2009-05-30, 02:10:04,VALID,999.541,VALID,0,VALID,86.5733,VALID,0,VALID,24.7746,VALID,98,VALID,0.419531,
2009-05-30, 02:11:04,VALID,999.517,VALID,0,VALID,86.5962,VALID,0.112286,VALID,24.7337,VALID,94,VALID,0.496094,
2009-05-30, 02:12:04,VALID,999.531,VALID,0,VALID,86.2986,VALID,0,VALID,24.7356,VALID,94,VALID,0.562109,
2009-05-30, 02:13:04,VALID,999.465,VALID,0,VALID,86.4131,VALID,0,VALID,24.7337,VALID,84,VALID,0.593359,
2009-05-30, 02:14:04,VALID,999.442,VALID,0,VALID,86.8937,VALID,0,VALID,24.7532,VALID,84,VALID,0.110937,
2009-05-30, 02:15:04,VALID,999.434,VALID,0,VALID,87.0997,VALID,0,VALID,24.7356,VALID,80,VALID,0.122266,
2009-05-30, 02:16:04,VALID,999.416,VALID,0,VALID,87.3515,VALID,0,VALID,24.6965,VALID,80,VALID,0.148047,
2009-05-30, 02:17:04,VALID,999.387,VALID,0,VALID,87.5651,VALID,0,VALID,24.6166,VALID,80,VALID,0.136328,
2009-05-30, 02:18:04,VALID,999.339,VALID,0,VALID,87.9848,VALID,0,VALID,24.5775,VALID,80,VALID,0.205469,
2009-05-30, 02:19:04,VALID,999.38,VALID,0,VALID,88.2366,VALID,0.112286,VALID,24.5404,VALID,80,VALID,0.208203,
2009-05-30, 02:20:04,VALID,999.367,VALID,0,VALID,88.5417,VALID,0,VALID,24.4604,VALID,80,VALID,0.227734,
2009-05-30, 02:21:04,VALID,999.328,VALID,0,VALID,88.824,VALID,0,VALID,24.4428,VALID,80,VALID,0.282813,
2009-05-30, 02:22:04,VALID,999.348,VALID,0,VALID,89.0529,VALID,0,VALID,24.4019,VALID,80,VALID,0.278516,
2009-05-30, 02:23:04,VALID,999.35,VALID,0,VALID,89.0606,VALID,0,VALID,24.4037,VALID,80,VALID,0.482031,
2009-05-30, 02:24:04,VALID,999.365,VALID,0,VALID,89.2666,VALID,0,VALID,24.3452,VALID,80,VALID,0.484375,
2009-05-30, 02:25:04,VALID,999.36,VALID,0,VALID,89.0682,VALID,0,VALID,24.347,VALID,80,VALID,0.440625,
2009-05-30, 02:26:04,VALID,999.353,VALID,0,VALID,89.0987,VALID,0,VALID,24.347,VALID,80,VALID,0.462891,
2009-05-30, 02:27:04,VALID,999.355,VALID,0,VALID,89.0758,VALID,0,VALID,24.347,VALID,82,VALID,0.411328,
2009-05-30, 02:28:04,VALID,999.359,VALID,0,VALID,89.0224,VALID,0,VALID,24.3257,VALID,82,VALID,0.417188,
2009-05-30, 02:29:04,VALID,999.354,VALID,0,VALID,88.9766,VALID,0,VALID,24.3257,VALID,82,VALID,0.520312,
2009-05-30, 02:30:04,VALID,999.329,VALID,0,VALID,88.9614,VALID,0,VALID,24.3452,VALID,82,VALID,0.397266,
2009-05-30, 02:31:04,VALID,999.302,VALID,0,VALID,89.1597,VALID,0,VALID,24.347,VALID,82,VALID,0.185156,
2009-05-30, 02:32:04,VALID,999.294,VALID,0,VALID,89.1445,VALID,0,VALID,24.3275,VALID,82,VALID,0.433984,
2009-05-30, 02:33:04,VALID,999.296,VALID,0,VALID,88.9309,VALID,0,VALID,24.3257,VALID,88,VALID,0.416797,
2009-05-30, 02:34:04,VALID,999.265,VALID,0,VALID,88.8622,VALID,0,VALID,24.3257,VALID,88,VALID,0.309766,
2009-05-30, 02:35:04,VALID,999.23,VALID,0,VALID,88.6333,VALID,0,VALID,24.3666,VALID,149,VALID,0.387891,
2009-05-30, 02:36:04,VALID,999.188,VALID,0,VALID,88.7096,VALID,0,VALID,24.3861,VALID,148,VALID,0.389844,
2009-05-30, 02:37:04,VALID,999.18,VALID,0,VALID,88.8469,VALID,0,VALID,24.4251,VALID,143,VALID,0.525,
2009-05-30, 02:38:04,VALID,999.149,VALID,0,VALID,88.7554,VALID,0,VALID,24.4428,VALID,138,VALID,0.567187,
2009-05-30, 02:39:04,VALID,999.12,VALID,0,VALID,88.4426,VALID,0.112286,VALID,24.4409,VALID,138,VALID,0.470313,
2009-05-30, 02:40:04,VALID,999.115,VALID,0,VALID,88.3739,VALID,0,VALID,24.4604,VALID,138,VALID,0.273438,
2009-05-30, 02:41:04,VALID,999.128,VALID,0,VALID,87.8093,VALID,0,VALID,24.4604,VALID,138,VALID,0.444531,
2009-05-30, 02:42:04,VALID,999.102,VALID,0,VALID,87.878,VALID,0.112286,VALID,24.4995,VALID,138,VALID,0.314063,
2009-05-30, 02:43:04,VALID,999.091,VALID,0,VALID,87.3134,VALID,0,VALID,24.519,VALID,138,VALID,0.558203,
2009-05-30, 02:44:04,VALID,999.099,VALID,0,VALID,86.8937,VALID,0.112286,VALID,24.558,VALID,129,VALID,0.695313,
2009-05-30, 02:45:04,VALID,999.126,VALID,0,VALID,86.7106,VALID,0.112286,VALID,24.5971,VALID,128,VALID,0.649219,
2009-05-30, 02:46:04,VALID,999.099,VALID,0,VALID,86.6038,VALID,0,VALID,24.6556,VALID,124,VALID,0.6875,
2009-05-30, 02:47:04,VALID,999.105,VALID,0,VALID,86.7183,VALID,0,VALID,24.6361,VALID,124,VALID,0.469141,
2009-05-30, 02:48:04,VALID,999.118,VALID,0,VALID,86.2223,VALID,0.112286,VALID,24.6556,VALID,107,VALID,0.572266,
2009-05-30, 02:49:04,VALID,999.116,VALID,0,VALID,86.5123,VALID,0.112286,VALID,24.677,VALID,78,VALID,0.771094,
2009-05-30, 02:50:04,VALID,999.143,VALID,0,VALID,87.733,VALID,0,VALID,24.6361,VALID,39,VALID,1.09922,
2009-05-30, 02:51:04,VALID,999.095,VALID,0,VALID,88.5875,VALID,0.112286,VALID,24.5794,VALID,30,VALID,1.03633,
2009-05-30, 02:52:04,VALID,999.108,VALID,0,VALID,88.9919,VALID,0.112286,VALID,24.4214,VALID,14,VALID,1.15,
2009-05-30, 02:53:04,VALID,999.148,VALID,0,VALID,89.6786,VALID,0,VALID,24.3062,VALID,13,VALID,1.12578,
2009-05-30, 02:54:04,VALID,999.152,VALID,0,VALID,90.1134,VALID,0,VALID,24.2067,VALID,13,VALID,1.24727,
2009-05-30, 02:55:04,VALID,999.119,VALID,0,VALID,90.4797,VALID,0,VALID,24.1677,VALID,11,VALID,1.19258,
2009-05-30, 02:56:04,VALID,999.162,VALID,0,VALID,90.5102,VALID,0,VALID,24.15,VALID,8,VALID,0.896484,
2009-05-30, 02:57:04,VALID,999.149,VALID,0,VALID,90.6399,VALID,0,VALID,24.1305,VALID,8,VALID,0.585547,
2009-05-30, 02:58:04,VALID,999.165,VALID,0,VALID,90.7391,VALID,0,VALID,24.111,VALID,8,VALID,0.415625,
2009-05-30, 02:59:04,VALID,999.222,VALID,0,VALID,90.8459,VALID,0,VALID,24.0506,VALID,8,VALID,0.424219,
2009-05-30, 03:00:04,VALID,999.25,VALID,0,VALID,90.9909,VALID,0,VALID,24.0525,VALID,8,VALID,0.283984,
2009-05-30, 03:01:04,VALID,999.242,VALID,0,VALID,91.1663,VALID,0,VALID,24.0116,VALID,8,VALID,0.426953,
2009-05-30, 03:02:04,VALID,999.274,VALID,0,VALID,91.3266,VALID,0,VALID,23.9921,VALID,8,VALID,0.513672,
2009-05-30, 03:03:04,VALID,999.23,VALID,0,VALID,91.3342,VALID,0,VALID,23.9921,VALID,8,VALID,0.387109,
2009-05-30, 03:04:04,VALID,999.254,VALID,0,VALID,91.3571,VALID,0,VALID,23.9921,VALID,8,VALID,0.324609,
2009-05-30, 03:05:04,VALID,999.238,VALID,0,VALID,91.4105,VALID,0,VALID,23.9921,VALID,8,VALID,0.274219,
2009-05-30, 03:06:04,VALID,999.25,VALID,0,VALID,91.4791,VALID,0,VALID,23.9921,VALID,8,VALID,0.341406,
2009-05-30, 03:07:04,VALID,999.265,VALID,0,VALID,91.502,VALID,0.112286,VALID,23.9921,VALID,8,VALID,0.252344,
2009-05-30, 03:08:04,VALID,999.272,VALID,0,VALID,91.4105,VALID,0,VALID,24.0134,VALID,8,VALID,0.242188,
2009-05-30, 03:09:04,VALID,999.286,VALID,0,VALID,91.4181,VALID,0,VALID,23.9744,VALID,8,VALID,0.182422,
2009-05-30, 03:10:04,VALID,999.296,VALID,0,VALID,91.441,VALID,0,VALID,23.9744,VALID,8,VALID,0.123828,
2009-05-30, 03:11:04,VALID,999.275,VALID,0,VALID,91.3647,VALID,0,VALID,23.9549,VALID,8,VALID,0,
2009-05-30, 03:12:04,VALID,999.283,VALID,0,VALID,91.4639,VALID,0,VALID,23.9372,VALID,8,VALID,0,
2009-05-30, 03:13:04,VALID,999.306,VALID,0,VALID,91.647,VALID,0,VALID,23.9159,VALID,8,VALID,0,
2009-05-30, 03:14:04,VALID,999.322,VALID,0,VALID,91.708,VALID,0,VALID,23.8768,VALID,8,VALID,0,
2009-05-30, 03:15:04,VALID,999.308,VALID,0,VALID,91.7309,VALID,0,VALID,23.8963,VALID,8,VALID,0,
2009-05-30, 03:16:04,VALID,999.292,VALID,0,VALID,91.8377,VALID,0,VALID,23.8573,VALID,8,VALID,0,
2009-05-30, 03:17:04,VALID,999.325,VALID,0,VALID,91.9674,VALID,0,VALID,23.8591,VALID,8,VALID,0.400781,
2009-05-30, 03:18:05,VALID,999.335,VALID,0,VALID,91.9293,VALID,0,VALID,23.8396,VALID,9,VALID,0.604688,
2009-05-30, 03:19:05,VALID,999.346,VALID,0,VALID,91.7767,VALID,0,VALID,23.7988,VALID,25,VALID,0.61875,
2009-05-30, 03:20:05,VALID,999.35,VALID,0,VALID,91.7233,VALID,0,VALID,23.8396,VALID,25,VALID,0.564453,
2009-05-30, 03:21:05,VALID,999.347,VALID,0,VALID,91.4563,VALID,0,VALID,23.8396,VALID,25,VALID,0.69375,
2009-05-30, 03:22:05,VALID,999.361,VALID,0,VALID,91.296,VALID,0,VALID,23.8396,VALID,25,VALID,0.498828,
2009-05-30, 03:23:05,VALID,999.375,VALID,0,VALID,91.2197,VALID,0,VALID,23.8201,VALID,25,VALID,0.525391,
2009-05-30, 03:24:05,VALID,999.38,VALID,0,VALID,91.235,VALID,0,VALID,23.7597,VALID,25,VALID,0.609375,
2009-05-30, 03:25:05,VALID,999.384,VALID,0,VALID,91.2884,VALID,0,VALID,23.7402,VALID,25,VALID,0.675391,
2009-05-30, 03:26:05,VALID,999.365,VALID,0,VALID,91.4563,VALID,0,VALID,23.7207,VALID,35,VALID,1.0168,
2009-05-30, 03:27:05,VALID,999.382,VALID,0,VALID,91.5554,VALID,0,VALID,23.703,VALID,39,VALID,1.15391,
2009-05-30, 03:28:05,VALID,999.382,VALID,0,VALID,91.6699,VALID,0,VALID,23.6817,VALID,43,VALID,1.15547,
2009-05-30, 03:29:05,VALID,999.372,VALID,0,VALID,91.7767,VALID,0,VALID,23.6835,VALID,43,VALID,1.11094,
2009-05-30, 03:30:05,VALID,999.407,VALID,0,VALID,91.6851,VALID,0,VALID,23.6817,VALID,42,VALID,1.06367,
2009-05-30, 03:31:05,VALID,999.4,VALID,0,VALID,91.5554,VALID,0,VALID,23.703,VALID,42,VALID,0.908594,
2009-05-30, 03:32:05,VALID,999.408,VALID,0,VALID,91.502,VALID,0,VALID,23.7012,VALID,42,VALID,0.862109,
2009-05-30, 03:33:05,VALID,999.405,VALID,0,VALID,91.5554,VALID,0,VALID,23.703,VALID,42,VALID,0.871484,
2009-05-30, 03:34:05,VALID,999.38,VALID,0,VALID,91.8225,VALID,0,VALID,23.6835,VALID,42,VALID,0.878516,
2009-05-30, 03:35:05,VALID,999.378,VALID,0,VALID,92.0971,VALID,0,VALID,23.6817,VALID,42,VALID,1.02617,
2009-05-30, 03:36:05,VALID,999.383,VALID,0,VALID,92.4405,VALID,0,VALID,23.6622,VALID,42,VALID,1.09922,
2009-05-30, 03:37:05,VALID,999.393,VALID,0,VALID,92.5015,VALID,0,VALID,23.6817,VALID,43,VALID,0.889453,
2009-05-30, 03:38:05,VALID,999.402,VALID,0,VALID,92.7075,VALID,0,VALID,23.6622,VALID,43,VALID,0.964844,
2009-05-30, 03:39:05,VALID,999.353,VALID,0,VALID,92.8067,VALID,0,VALID,23.6622,VALID,55,VALID,0.773828,
2009-05-30, 03:40:05,VALID,999.353,VALID,0,VALID,92.944,VALID,0,VALID,23.6427,VALID,55,VALID,0.755078,
2009-05-30, 03:41:05,VALID,999.311,VALID,0,VALID,92.9593,VALID,0,VALID,23.6427,VALID,55,VALID,0.775,
2009-05-30, 03:42:05,VALID,999.359,VALID,0,VALID,92.9288,VALID,0,VALID,23.6232,VALID,55,VALID,0.589453,
2009-05-30, 03:43:05,VALID,999.356,VALID,0,VALID,92.8677,VALID,0,VALID,23.6445,VALID,55,VALID,0.566797,
2009-05-30, 03:44:05,VALID,999.365,VALID,0,VALID,92.8372,VALID,0,VALID,23.6036,VALID,55,VALID,0.371484,
2009-05-30, 03:45:05,VALID,999.379,VALID,0,VALID,92.8372,VALID,0,VALID,23.6036,VALID,55,VALID,0.301953,